QPF
0.06 0.07 0.07 0.07 0.08 0.07 0.07 0.10 0.11 0.08 0.06 0.05 0.05 0.03 0.03 0.03 0.03 0.02 0.03 0.03 0.02 0.01 0.01 0.00 0.00 0.00 0.01 0.01 0.01 0.01 0.01 0.00 0.00 0.00 0.01 0.01 0.02 0.03
0.05 0.05 0.06 0.06 0.08 0.07 0.07 0.09 0.09 0.07 0.05 0.05 0.06 0.07 0.06 0.03 0.02 0.01 0.02 0.02 0.02 0.01 0.01 0.01 0.00 0.01 0.00 0.00 0.00 0.00 0.00 0.00 0.00 0.01 0.01 0.01 0.01 0.01
0.05 0.04 0.06 0.07 0.06 0.07 0.06 0.06 0.06 0.06 0.05 0.05 0.05 0.07 0.06 0.04 0.04 0.03 0.02 0.02 0.02 0.02 0.02 0.02 0.01 0.00 0.00 0.00 0.00 0.00 0.00 0.00 0.01 0.01 0.01 0.01 0.00 0.00
0.06 0.05 0.06 0.05 0.05 0.05 0.04 0.04 0.05 0.05 0.05 0.04 0.04 0.03 0.03 0.03 0.03 0.03 0.02 0.01 0.01 0.01 0.03 0.03 0.01 0.00 0.00 0.00 0.00 0.00 0.00 0.00 0.00 0.00 0.01 0.01 0.01 0.00
0.06 0.05 0.05 0.04 0.03 0.04 0.04 0.04 0.05 0.06 0.06 0.05 0.05 0.04 0.04 0.03 0.02 0.02 0.02 0.02 0.01 0.01 0.01 0.02 0.02 0.01 0.00 0.01 0.01 0.01 0.01 0.00 0.00 0.00 0.00 0.01 0.01 0.01
0.04 0.04 0.04 0.04 0.04 0.04 0.05 0.05 0.05 0.06 0.06 0.05 0.04 0.04 0.04 0.03 0.02 0.01 0.01 0.02 0.02 0.01 0.01 0.01 0.01 0.01 0.01 0.01 0.01 0.01 0.01 0.01 0.01 0.00 0.00 0.00 0.00 0.00
0.03 0.03 0.04 0.03 0.02 0.03 0.03 0.04 0.03 0.03 0.05 0.04 0.03 0.03 0.03 0.02 0.01 0.01 0.01 0.02 0.02 0.01 0.01 0.01 0.01 0.01 0.02 0.01 0.01 0.01 0.01 0.01 0.01 0.01 0.00 0.00 0.01 0.00
0.04 0.03 0.02 0.02 0.02 0.02 0.03 0.03 0.04 0.04 0.05 0.03 0.02 0.02 0.02 0.01 0.01 0.01 0.01 0.01 0.01 0.01 0.02 0.02 0.01 0.01 0.01 0.01 0.01 0.01 0.01 0.01 0.01 0.01 0.01 0.01 0.01 0.01
0.03 0.02 0.01 0.02 0.02 0.03 0.04 0.04 0.04 0.04 0.03 0.02 0.02 0.02 0.01 0.01 0.01 0.01 0.01 0.01 0.01 0.02 0.02 0.02 0.02 0.02 0.01 0.01 0.01 0.02 0.02 0.01 0.01 0.01 0.01 0.01 0.01 0.01
0.02 0.02 0.02 0.02 0.04 0.05 0.04 0.03 0.03 0.02 0.02 0.02 0.01 0.02 0.01 0.01 0.02 0.02 0.03 0.02 0.02 0.02 0.02 0.02 0.02 0.03 0.02 0.02 0.01 0.01 0.01 0.01 0.01 0.01 0.01 0.01 0.01 0.01
0.01 0.02 0.02 0.02 0.03 0.04 0.03 0.03 0.02 0.01 0.02 0.02 0.01 0.01 0.01 0.02 0.03 0.03 0.03 0.03 0.02 0.03 0.03 0.02 0.03 0.03 0.03 0.03 0.02 0.01 0.01 0.02 0.02 0.01 0.01 0.01 0.01 0.01
0.02 0.02 0.01 0.01 0.02 0.02 0.02 0.03 0.02 0.03 0.03 0.02 0.02 0.02 0.03 0.02 0.03 0.04 0.03 0.03 0.03 0.03 0.03 0.03 0.04 0.04 0.04 0.03 0.03 0.02 0.02 0.01 0.01 0.01 0.01 0.01 0.01 0.01
0.01 0.01 0.01 0.01 0.01 0.02 0.02 0.03 0.04 0.04 0.03 0.03 0.03 0.03 0.03 0.03 0.03 0.03 0.03 0.02 0.03 0.03 0.04 0.05 0.05 0.04 0.04 0.03 0.02 0.02 0.01 0.01 0.01 0.01 0.01 0.01 0.01 0.01
0.01 0.01 0.01 0.02 0.02 0.03 0.03 0.04 0.05 0.04 0.03 0.02 0.02 0.02 0.01 0.02 0.03 0.03 0.03 0.03 0.03 0.03 0.04 0.04 0.04 0.04 0.04 0.04 0.02 0.02 0.01 0.01 0.01 0.01 0.00 0.01 0.01 0.01
0.02 0.02 0.02 0.02 0.02 0.02 0.02 0.04 0.05 0.04 0.04 0.04 0.03 0.02 0.02 0.02 0.03 0.03 0.03 0.03 0.03 0.02 0.02 0.03 0.03 0.04 0.05 0.04 0.03 0.03 0.02 0.02 0.01 0.01 0.01 0.01 0.01 0.01
0.01 0.02 0.02 0.02 0.02 0.02 0.03 0.04 0.04 0.05 0.06 0.05 0.04 0.03 0.03 0.03 0.03 0.03 0.02 0.02 0.02 0.02 0.02 0.02 0.03 0.05 0.05 0.04 0.04 0.03 0.03 0.03 0.02 0.02 0.02 0.02 0.01 0.01
0.01 0.01 0.02 0.02 0.02 0.03 0.04 0.04 0.05 0.05 0.05 0.05 0.04 0.03 0.03 0.03 0.03 0.02 0.02 0.02 0.02 0.02 0.02 0.03 0.04 0.05 0.04 0.04 0.04 0.03 0.04 0.03 0.03 0.02 0.02 0.02 0.01 0.01
0.02 0.02 0.03 0.04 0.04 0.04 0.04 0.05 0.05 0.05 0.05 0.05 0.04 0.04 0.04 0.04 0.04 0.03 0.03 0.03 0.04 0.04 0.04 0.03 0.03 0.03 0.03 0.03 0.03 0.03 0.03 0.03 0.03 0.04 0.04 0.04 0.03 0.03
0.02 0.03 0.03 0.03 0.03 0.03 0.04 0.04 0.04 0.04 0.05 0.04 0.04 0.04 0.04 0.03 0.04 0.04 0.04 0.04 0.04 0.04 0.04 0.05 0.05 0.04 0.04 0.03 0.03 0.03 0.03 0.03 0.04 0.04 0.04 0.03 0.03 0.03
0.03 0.04 0.03 0.03 0.03 0.03 0.04 0.04 0.03 0.03 0.03 0.03 0.03 0.04 0.04 0.04 0.04 0.03 0.03 0.04 0.04 0.04 0.04 0.03 0.03 0.04 0.03 0.03 0.03 0.03 0.02 0.03 0.03 0.04 0.04 0.03 0.02 0.03
0.03 0.03 0.03 0.03 0.03 0.03 0.03 0.03 0.04 0.03 0.03 0.03 0.04 0.04 0.05 0.05 0.04 0.04 0.04 0.04 0.05 0.05 0.05 0.04 0.04 0.04 0.04 0.04 0.03 0.02 0.02 0.03 0.04 0.04 0.05 0.05 0.03 0.03
0.02 0.03 0.03 0.03 0.03 0.02 0.02 0.03 0.03 0.04 0.05 0.05 0.05 0.05 0.06 0.07 0.06 0.05 0.05 0.05 0.05 0.05 0.04 0.04 0.04 0.04 0.05 0.04 0.04 0.03 0.03 0.03 0.03 0.03 0.04 0.04 0.04 0.03
0.02 0.02 0.02 0.02 0.02 0.02 0.02 0.03 0.03 0.04 0.05 0.06 0.06 0.06 0.06 0.07 0.07 0.07 0.06 0.06 0.05 0.05 0.05 0.05 0.06 0.06 0.06 0.05 0.05 0.05 0.04 0.04 0.03 0.03 0.03 0.03 0.02 0.02
MSLP
1012.14 1012.01 1011.93 1011.86 1011.75 1011.56 1011.24 1010.80 1010.23 1009.57 1008.87 1008.19 1007.57 1007.07 1006.71 1006.51 1006.46 1006.54 1006.73 1006.98 1007.28 1007.59 1007.90 1008.20 1008.47 1008.72 1008.93 1009.11 1009.24 1009.32 1009.35 1009.34 1009.30 1009.25 1009.21 1009.22 1009.30 1009.46
1012.17 1011.99 1011.87 1011.76 1011.62 1011.40 1011.08 1010.64 1010.08 1009.42 1008.72 1008.03 1007.38 1006.84 1006.43 1006.16 1006.03 1006.03 1006.13 1006.32 1006.56 1006.84 1007.15 1007.47 1007.79 1008.11 1008.41 1008.69 1008.92 1009.09 1009.19 1009.23 1009.21 1009.15 1009.08 1009.03 1009.03 1009.10
1012.32 1012.08 1011.90 1011.73 1011.55 1011.30 1010.95 1010.50 1009.95 1009.31 1008.62 1007.93 1007.29 1006.72 1006.27 1005.93 1005.72 1005.63 1005.63 1005.72 1005.88 1006.10 1006.36 1006.67 1007.02 1007.39 1007.76 1008.13 1008.46 1008.73 1008.94 1009.05 1009.09 1009.07 1009.00 1008.91 1008.85 1008.85
1012.54 1012.25 1012.00 1011.77 1011.52 1011.23 1010.86 1010.40 1009.86 1009.24 1008.58 1007.92 1007.28 1006.71 1006.23 1005.84 1005.55 1005.36 1005.25 1005.22 1005.27 1005.39 1005.58 1005.84 1006.17 1006.56 1006.99 1007.43 1007.86 1008.24 1008.54 1008.76 1008.89 1008.92 1008.89 1008.82 1008.74 1008.70
1012.77 1012.43 1012.12 1011.83 1011.53 1011.19 1010.79 1010.33 1009.79 1009.20 1008.58 1007.95 1007.34 1006.78 1006.28 1005.85 1005.50 1005.21 1004.99 1004.83 1004.75 1004.75 1004.83 1005.02 1005.30 1005.67 1006.11 1006.60 1007.11 1007.58 1008.00 1008.34 1008.57 1008.70 1008.74 1008.72 1008.66 1008.61
1012.96 1012.58 1012.22 1011.87 1011.51 1011.14 1010.72 1010.25 1009.72 1009.16 1008.58 1007.99 1007.42 1006.88 1006.37 1005.91 1005.49 1005.12 1004.79 1004.51 1004.29 1004.16 1004.13 1004.21 1004.41 1004.74 1005.17 1005.68 1006.24 1006.80 1007.33 1007.78 1008.13 1008.38 1008.52 1008.58 1008.59 1008.58
1013.06 1012.64 1012.23 1011.84 1011.45 1011.04 1010.60 1010.12 1009.61 1009.08 1008.52 1007.97 1007.43 1006.90 1006.40 1005.92 1005.45 1005.01 1004.59 1004.20 1003.86 1003.60 1003.45 1003.42 1003.54 1003.80 1004.20 1004.72 1005.31 1005.94 1006.55 1007.11 1007.59 1007.97 1008.24 1008.41 1008.50 1008.56
1013.02 1012.58 1012.14 1011.72 1011.29 1010.86 1010.40 1009.92 1009.41 1008.88 1008.35 1007.82 1007.30 1006.79 1006.28 1005.78 1005.28 1004.79 1004.29 1003.82 1003.39 1003.03 1002.78 1002.66 1002.69 1002.89 1003.24 1003.75 1004.36 1005.03 1005.72 1006.38 1006.98 1007.48 1007.88 1008.17 1008.38 1008.53
1012.86 1012.40 1011.95 1011.50 1011.05 1010.59 1010.11 1009.61 1009.09 1008.56 1008.02 1007.49 1006.97 1006.45 1005.94 1005.43 1004.91 1004.38 1003.84 1003.32 1002.83 1002.41 1002.08 1001.89 1001.86 1002.01 1002.32 1002.81 1003.42 1004.12 1004.87 1005.61 1006.31 1006.92 1007.45 1007.87 1008.20 1008.45
1012.58 1012.12 1011.66 1011.20 1010.72 1010.23 1009.72 1009.19 1008.64 1008.08 1007.52 1006.96 1006.41 1005.88 1005.35 1004.82 1004.28 1003.74 1003.19 1002.65 1002.15 1001.70 1001.35 1001.13 1001.06 1001.17 1001.46 1001.92 1002.53 1003.24 1004.02 1004.82 1005.59 1006.31 1006.94 1007.47 1007.91 1008.27
1012.24 1011.77 1011.30 1010.82 1010.33 1009.81 1009.26 1008.68 1008.08 1007.47 1006.85 1006.25 1005.65 1005.08 1004.52 1003.97 1003.43 1002.89 1002.35 1001.83 1001.34 1000.92 1000.58 1000.36 1000.29 1000.39 1000.67 1001.11 1001.70 1002.41 1003.20 1004.03 1004.84 1005.62 1006.34 1006.96 1007.50 1007.95
1011.85 1011.39 1010.91 1010.41 1009.89 1009.33 1008.73 1008.10 1007.44 1006.76 1006.08 1005.40 1004.75 1004.12 1003.53 1002.96 1002.41 1001.88 1001.38 1000.89 1000.46 1000.08 999.79 999.61 999.56 999.67 999.94 1000.37 1000.95 1001.64 1002.42 1003.24 1004.08 1004.89 1005.65 1006.34 1006.95 1007.49
1011.45 1010.98 1010.48 1009.96 1009.40 1008.80 1008.16 1007.47 1006.74 1005.99 1005.24 1004.49 1003.77 1003.09 1002.45 1001.86 1001.31 1000.80 1000.33 999.90 999.53 999.22 999.00 998.87 998.87 999.01 999.29 999.71 1000.26 1000.93 1001.68 1002.48 1003.31 1004.12 1004.90 1005.63 1006.29 1006.89
1011.04 1010.55 1010.03 1009.48 1008.89 1008.25 1007.56 1006.81 1006.02 1005.21 1004.39 1003.57 1002.79 1002.06 1001.38 1000.76 1000.20 999.71 999.28 998.91 998.60 998.37 998.23 998.17 998.23 998.40 998.70 999.12 999.65 1000.28 1001.00 1001.76 1002.55 1003.34 1004.12 1004.85 1005.54 1006.18
1010.62 1010.10 1009.55 1008.96 1008.34 1007.66 1006.93 1006.14 1005.31 1004.45 1003.57 1002.71 1001.87 1001.09 1000.37 999.72 999.16 998.68 998.28 997.95 997.71 997.55 997.48 997.50 997.61 997.83 998.15 998.57 999.10 999.70 1000.37 1001.09 1001.84 1002.59 1003.34 1004.07 1004.77 1005.43
1010.20 1009.63 1009.04 1008.42 1007.76 1007.06 1006.30 1005.49 1004.63 1003.74 1002.83 1001.92 1001.05 1000.22 999.47 998.80 998.21 997.73 997.34 997.05 996.85 996.75 996.75 996.83 997.00 997.27 997.62 998.06 998.58 999.17 999.81 1000.49 1001.19 1001.91 1002.63 1003.34 1004.03 1004.70
1009.77 1009.16 1008.53 1007.88 1007.20 1006.48 1005.71 1004.88 1004.02 1003.11 1002.19 1001.26 1000.35 999.49 998.69 997.98 997.37 996.86 996.47 996.19 996.02 995.96 996.00 996.14 996.37 996.69 997.09 997.56 998.09 998.68 999.30 999.96 1000.64 1001.33 1002.02 1002.71 1003.39 1004.06
1009.40 1008.74 1008.08 1007.40 1006.70 1005.97 1005.20 1004.38 1003.52 1002.61 1001.68 1000.73 999.79 998.89 998.05 997.29 996.63 996.08 995.65 995.36 995.19 995.15 995.23 995.42 995.71 996.08 996.53 997.04 997.61 998.22 998.86 999.52 1000.19 1000.87 1001.55 1002.22 1002.89 1003.55
1009.12 1008.43 1007.74 1007.05 1006.34 1005.62 1004.85 1004.04 1003.19 1002.28 1001.33 1000.36 999.39 998.44 997.54 996.71 995.98 995.37 994.90 994.56 994.38 994.35 994.44 994.67 995.01 995.44 995.95 996.52 997.15 997.80 998.48 999.16 999.85 1000.54 1001.21 1001.89 1002.55 1003.20
1009.00 1008.29 1007.59 1006.89 1006.19 1005.47 1004.72 1003.92 1003.06 1002.15 1001.18 1000.18 999.16 998.14 997.17 996.26 995.45 994.76 994.22 993.84 993.62 993.57 993.68 993.94 994.32 994.80 995.38 996.02 996.71 997.42 998.15 998.88 999.60 1000.31 1001.01 1001.69 1002.35 1003.00
1009.06 1008.36 1007.66 1006.98 1006.29 1005.58 1004.84 1004.04 1003.17 1002.24 1001.25 1000.20 999.11 998.02 996.96 995.97 995.07 994.30 993.68 993.23 992.98 992.91 993.02 993.29 993.70 994.24 994.87 995.58 996.33 997.11 997.89 998.67 999.43 1000.18 1000.90 1001.60 1002.27 1002.92
1009.30 1008.62 1007.96 1007.30 1006.63 1005.94 1005.20 1004.39 1003.51 1002.55 1001.52 1000.41 999.26 998.09 996.95 995.86 994.88 994.02 993.33 992.83 992.53 992.43 992.53 992.81 993.25 993.82 994.50 995.25 996.05 996.88 997.70 998.52 999.33 1000.10 1000.84 1001.56 1002.24 1002.91
1009.68 1009.05 1008.43 1007.81 1007.17 1006.49 1005.75 1004.94 1004.04 1003.04 1001.96 1000.80 999.59 998.35 997.13 995.97 994.91 993.99 993.24 992.69 992.35 992.23 992.31 992.59 993.03 993.61 994.31 995.08 995.90 996.75 997.60 998.44 999.25 1000.04 1000.80 1001.53 1002.22 1002.89
Thickness
5749 5747 5746 5747 5747 5746 5744 5741 5734 5730 5730 5732 5731 5731 5728 5725 5721 5719 5716 5712 5710 5707 5704 5702 5700 5698 5696 5694 5692 5691 5689 5687 5686 5685 5684 5683 5681 5680
5746 5745 5744 5746 5745 5744 5743 5741 5738 5733 5730 5733 5730 5729 5725 5723 5718 5716 5714 5710 5708 5705 5702 5699 5697 5694 5692 5690 5689 5687 5685 5683 5682 5681 5680 5678 5677 5676
5745 5743 5742 5742 5742 5743 5741 5739 5737 5733 5728 5729 5728 5725 5720 5718 5715 5713 5711 5708 5706 5702 5699 5696 5694 5691 5689 5687 5685 5682 5681 5679 5678 5677 5675 5674 5672 5671
5742 5741 5740 5740 5738 5738 5737 5736 5734 5732 5728 5722 5722 5721 5717 5715 5712 5709 5708 5707 5704 5700 5697 5694 5691 5688 5685 5683 5681 5679 5677 5675 5673 5672 5670 5669 5667 5666
5741 5739 5738 5736 5734 5734 5732 5732 5731 5730 5726 5723 5720 5718 5715 5712 5708 5706 5704 5702 5701 5698 5694 5691 5688 5685 5682 5679 5677 5675 5673 5671 5669 5668 5666 5664 5662 5661
5739 5737 5736 5734 5732 5730 5729 5727 5726 5725 5722 5720 5718 5714 5711 5708 5705 5702 5700 5699 5698 5697 5693 5690 5686 5682 5680 5677 5674 5672 5669 5667 5665 5663 5661 5659 5658 5656
5735 5734 5733 5731 5728 5726 5726 5724 5722 5720 5718 5715 5713 5710 5707 5703 5701 5700 5697 5695 5694 5694 5691 5689 5685 5682 5679 5675 5672 5670 5666 5663 5661 5659 5656 5655 5653 5651
5730 5729 5729 5726 5723 5720 5718 5716 5714 5713 5712 5710 5709 5705 5702 5701 5698 5696 5694 5691 5688 5691 5687 5685 5684 5682 5680 5677 5673 5668 5664 5661 5658 5655 5652 5650 5648 5646
5725 5724 5725 5725 5720 5718 5713 5709 5707 5705 5703 5703 5703 5701 5700 5698 5694 5691 5689 5688 5686 5687 5682 5682 5682 5680 5678 5677 5671 5666 5662 5658 5654 5651 5649 5647 5644 5642
5721 5719 5717 5716 5714 5711 5710 5708 5705 5703 5700 5697 5697 5697 5696 5693 5690 5688 5685 5682 5681 5681 5679 5677 5678 5676 5676 5673 5668 5664 5659 5655 5651 5648 5645 5642 5640 5637
5716 5714 5712 5710 5706 5702 5702 5701 5700 5700 5696 5694 5692 5690 5688 5685 5682 5680 5678 5675 5675 5676 5676 5673 5674 5672 5671 5670 5666 5660 5656 5652 5648 5644 5641 5638 5635 5632
5711 5709 5705 5702 5698 5694 5695 5695 5693 5693 5692 5689 5685 5683 5681 5679 5676 5674 5673 5671 5671 5671 5673 5667 5668 5666 5664 5666 5663 5658 5653 5649 5645 5641 5638 5634 5630 5627
5704 5703 5701 5694 5690 5687 5685 5687 5687 5685 5684 5683 5681 5679 5677 5675 5673 5671 5669 5667 5667 5667 5669 5663 5662 5660 5659 5658 5657 5655 5651 5647 5642 5639 5635 5631 5627 5624
5694 5695 5693 5687 5683 5679 5678 5677 5675 5673 5676 5676 5674 5673 5671 5670 5669 5667 5664 5662 5661 5661 5660 5658 5656 5653 5651 5650 5650 5650 5647 5644 5641 5638 5634 5628 5623 5620
5685 5683 5680 5677 5674 5673 5670 5669 5667 5668 5668 5667 5666 5665 5665 5664 5662 5659 5657 5655 5653 5653 5652 5650 5648 5647 5645 5644 5644 5643 5640 5639 5637 5634 5630 5627 5623 5618
5675 5673 5670 5668 5667 5665 5664 5663 5662 5661 5660 5658 5658 5658 5657 5655 5654 5652 5650 5649 5646 5646 5645 5643 5640 5639 5637 5637 5637 5636 5634 5632 5632 5629 5626 5623 5620 5618
5665 5665 5666 5665 5663 5662 5661 5658 5656 5653 5651 5650 5650 5649 5648 5646 5645 5644 5642 5640 5638 5638 5637 5636 5634 5632 5631 5630 5629 5630 5628 5627 5626 5623 5618 5617 5616 5615
5654 5658 5656 5655 5654 5653 5652 5650 5648 5646 5645 5643 5641 5640 5640 5638 5637 5636 5633 5632 5631 5631 5630 5629 5627 5623 5621 5624 5622 5621 5621 5620 5619 5616 5613 5611 5611 5611
5647 5648 5647 5645 5644 5644 5643 5641 5640 5639 5637 5635 5634 5633 5631 5630 5628 5627 5626 5625 5623 5623 5622 5621 5618 5614 5612 5614 5618 5613 5612 5612 5611 5609 5608 5606 5606 5606
5640 5639 5637 5635 5634 5634 5633 5632 5630 5629 5628 5626 5625 5624 5623 5621 5620 5619 5618 5616 5615 5614 5614 5613 5612 5609 5606 5606 5607 5608 5604 5604 5603 5602 5601 5600 5599 5597
5631 5629 5627 5625 5624 5623 5622 5621 5620 5619 5618 5616 5616 5614 5614 5612 5612 5611 5610 5607 5604 5605 5605 5606 5605 5600 5598 5596 5596 5599 5600 5595 5594 5592 5592 5591 5590 5589
5620 5619 5617 5615 5613 5612 5611 5610 5610 5609 5608 5607 5606 5605 5605 5604 5603 5602 5602 5600 5599 5598 5598 5597 5595 5592 5590 5588 5589 5591 5590 5589 5585 5583 5582 5583 5583 5583
5608 5606 5604 5603 5601 5600 5600 5599 5598 5598 5597 5596 5596 5596 5595 5595 5594 5594 5593 5593 5592 5590 5589 5587 5586 5584 5583 5582 5582 5583 5583 5582 5581 5579 5578 5576 5574 5573